FENGYUN 1C DEB, 32209

Orbit data source: Space-Track

FENGYUN 1C DEB, 32209 is space debris in SSO originally from a launch on Mon, 10 May 1999 UTC launched from the Taiyaun Space Center, China (TSC). Fengyun 1C debris stems from the Chinese weather satellite Fengyun-1C, which was intentionally destroyed by a Chinese anti-satellite missile in 2007. This event dramatically increased the amount of space debris, with thousands of trackable fragments posing hazards to satellites and human spaceflight. The Fengyun 1C debris cloud has become a focal point in discussions about space sustainability and the need for international regulations to prevent the creation of new debris.

Loading next visibility...
Identifier
32209, 1999-025CVF
Orbit
SSO
Country
Flag of CNCN / PRC
Related business
Manufacturer
Unknown
Mission
Spacecraft
Bus & Motor
Unknown
Mass
Unknown
Launch date (UTC)
1999-05-10 (27 years ago)
Launch vehicle
Unknown
Launch site
Taiyaun Space Center, China (TSC)
Object type
Payload
Rocket body
Debris
Shape & HBR
Unknown shape, 0.1 m
Radar Cross Section
Small (<0.1 m²)

Expand to show TLE details & history
Last TLE update: 1 day ago

TLE from 1 day ago
0 FENGYUN 1C DEB
1 32209U 99025CVF 26167.07431972  .00000632  00000-0  79147-3 0  9998
2 32209  99.4310 109.1484 0328317 282.8663  73.5989 13.47718402924722
Epoch: 2026-06-16T01:47Z
TLE epoch observation values (Epoch: 2026-06-16T01:47:01.223Z)
Latitude
Longitude
178.04173°
Altitude
1,021.802 km
Speed
7.371 km/s
True Right ascension
07h 16m 35s
True Declination
0° 00' 00"
Sunlit
Object was in daylight at epoch
Visualization orbit readout
Latitude
Unknown
Longitude
Unknown
Altitude
Unknown
Speed
Unknown
Apparent Right ascension
Unknown
Apparent Declination
Unknown
Sunlit
N/A
Visualization observer readout
Local Sidereal Time
23:26:02
Azimuth
Unknown
Elevation
Unknown
Doppler factor
Unknown
Orbital elements
Apogee altitude
1,322.747 km
Perigee altitude
833.155 km
Semi-major axis
7,456.088 km
Eccentricity
0.03283
Inclination
99.431°
RAAN
109.1484°
Arg. of periapsis
282.8663°
True anomaly
77.24787°
Mean anomaly
73.5989°
Eccentric anomaly
75.41944°
Mean motion
3.37114 °/min
Orbital period
106.79 mins
BSTAR
0.00079147
Loading maneuver chart data...
Computing Atmospheric mass density...
Loading historical data...
Loading historical data...
Loading historical data...
Loading historical data...
Loading historical data...
Loading historical data...
Loading historical data...

Documentation

Showing up to 5 results
|